Weather History for Mosby, MO

Change the Weather History Date:

Friday, February 15, 2013

  Actual Average (KMKC) Record (KMKC)
Temperature  
Mean Temperature 29 °F -  
Max Temperature 35 °F 44 °F 66 °F (2000)
Min Temperature 23 °F 28 °F 3 °F (2007)
Degree Days  
Heating Degree Days 36    
Moisture  
Dew Point 17 °F    
Average Humidity 60    
Maximum Humidity 81    
Minimum Humidity 32    
Precipitation  
Precipitation 0.00 in - - ()
Sea Level Pressure  
Sea Level Pressure 30.30 in    
Wind  
Wind Speed 10 mph (NW)    
Max Wind Speed 20 mph    
Max Gust Speed 25 mph    
Visibility 10 miles    
Events Snow    
Averages and records for this station are not official NWS values.
T = Trace of Precipitation, MM = Missing Value Source: NWS Daily Summary

Daily Weather History Graph

Daily Weather History Graph

Search for Another Location

Airport:

Trip Planner

Search our weather history database for the weather conditions in past years. The results will help you decide how hot, cold, wet, or windy it might be!

Date:

Astronomy

Feb. 15, 2013 Rise Set
Actual Time 7:08 AM CST 5:54 PM CST
Civil Twilight 6:41 AM CST 6:21 PM CST
Nautical Twilight 6:09 AM CST 6:53 PM CST
Astronomical Twilight 5:38 AM CST 7:24 PM CST
Moon 9:47 AM CST (2/15) 11:53 PM CST (2/15)
Length of Visible Light 11h 40m
Length of Day
10h 45m
Waxing Crescent, 30% of the Moon is Illuminated
Feb 15
Waxing Crescent
Feb 17
First Quarter
Feb 25
Full
Mar 4
Last Quarter
Mar 11
New

Hourly Weather History & Observations

Time (CST) Temp. Windchill Dew Point Humidity Pressure Visibility Wind Dir Wind Speed Gust Speed Precip Events Conditions
12:15 AM 35.6 °F 29.2 °F 28.4 °F 75% 30.17 in 10.0 mi NW 8.1 mph - N/A   Overcast
12:35 AM 35.6 °F 28.6 °F 30.2 °F 81% 30.17 in 10.0 mi NW 9.2 mph - N/A   Overcast
12:55 AM 35.6 °F 29.9 °F 30.2 °F 81% 30.18 in 10.0 mi WNW 6.9 mph - N/A   Overcast
1:15 AM 35.6 °F 28.0 °F 30.2 °F 81% 30.19 in 7.0 mi NW 10.4 mph - N/A Snow Light Snow
1:35 AM 33.8 °F 24.3 °F 28.4 °F 81% 30.20 in 7.0 mi North 13.8 mph 21.9 mph N/A   Overcast
1:55 AM 33.8 °F 22.5 °F 26.6 °F 75% 30.21 in 10.0 mi North 19.6 mph 25.3 mph N/A   Overcast
2:15 AM 32.0 °F 22.5 °F 21.2 °F 64% 30.22 in 10.0 mi North 12.7 mph - N/A   Overcast
2:35 AM 32.0 °F 22.5 °F 19.4 °F 60% 30.24 in 10.0 mi NNW 12.7 mph - N/A   Overcast
2:55 AM 32.0 °F 22.5 °F 19.4 °F 60% 30.24 in 10.0 mi NNW 12.7 mph 21.9 mph N/A   Overcast
3:15 AM 32.0 °F 21.6 °F 19.4 °F 60% 30.25 in 10.0 mi NNW 15.0 mph - N/A   Overcast
3:35 AM 32.0 °F 21.6 °F 17.6 °F 55% 30.25 in 10.0 mi NNW 15.0 mph 20.7 mph N/A   Overcast
3:55 AM 30.2 °F 20.2 °F 17.6 °F 60% 30.26 in 10.0 mi NW 12.7 mph - N/A   Overcast
4:15 AM 30.2 °F 20.2 °F 17.6 °F 60% 30.27 in 10.0 mi NNW 12.7 mph 18.4 mph N/A   Overcast
4:35 AM 30.2 °F 20.8 °F 17.6 °F 60% 30.28 in 10.0 mi NNW 11.5 mph - N/A   Mostly Cloudy
4:55 AM 28.4 °F 19.7 °F 15.8 °F 59% 30.29 in 10.0 mi NW 9.2 mph - N/A   Scattered Clouds
5:15 AM 28.4 °F 18.0 °F 17.6 °F 64% 30.30 in 10.0 mi NW 12.7 mph 18.4 mph N/A   Clear
5:35 AM 26.6 °F 16.2 °F 17.6 °F 69% 30.32 in 10.0 mi NW 11.5 mph - N/A   Clear
5:55 AM 26.6 °F 16.2 °F 17.6 °F 69% 30.32 in 10.0 mi NW 11.5 mph 17.3 mph N/A   Clear
6:15 AM 24.8 °F 15.3 °F 15.8 °F 69% 30.32 in 10.0 mi NNW 9.2 mph 17.3 mph N/A   Clear
6:35 AM 23.0 °F 14.7 °F 15.8 °F 74% 30.32 in 10.0 mi NW 6.9 mph - N/A   Clear
6:55 AM 23.0 °F 13.1 °F 14.0 °F 68% 30.33 in 10.0 mi NW 9.2 mph - N/A   Clear
7:15 AM 23.0 °F 15.8 °F 14.0 °F 68% 30.35 in 10.0 mi NW 5.8 mph - N/A   Clear
7:35 AM 23.0 °F 14.7 °F 14.0 °F 68% 30.36 in 10.0 mi NW 6.9 mph - N/A   Clear
7:55 AM 23.0 °F 13.9 °F 14.0 °F 68% 30.36 in 10.0 mi NW 8.1 mph - N/A   Clear
8:15 AM 23.0 °F 13.1 °F 15.8 °F 74% 30.37 in 10.0 mi NW 9.2 mph - N/A   Clear
8:35 AM 24.8 °F 13.4 °F 15.8 °F 69% 30.37 in 10.0 mi NW 12.7 mph 16.1 mph N/A   Clear
8:55 AM 24.8 °F 14.0 °F 15.8 °F 69% 30.38 in 10.0 mi NW 11.5 mph - N/A   Clear
9:15 AM 26.6 °F 16.2 °F 14.0 °F 59% 30.38 in 10.0 mi NW 11.5 mph - N/A   Clear
9:35 AM 26.6 °F 16.8 °F 14.0 °F 59% 30.38 in 10.0 mi NW 10.4 mph - N/A   Clear
9:55 AM 28.4 °F 19.1 °F 15.8 °F 59% 30.37 in 10.0 mi NW 10.4 mph - N/A   Clear
10:15 AM 28.4 °F 21.2 °F 15.8 °F 59% 30.37 in 10.0 mi NW 6.9 mph - N/A   Clear
10:35 AM 30.2 °F 21.9 °F 15.8 °F 55% 30.38 in 10.0 mi NW 9.2 mph - N/A   Clear
10:55 AM 30.2 °F 22.6 °F 12.2 °F 47% 30.37 in 10.0 mi NW 8.1 mph - N/A   Clear
11:15 AM 30.2 °F 22.6 °F 12.2 °F 47% 30.37 in 10.0 mi NW 8.1 mph - N/A   Clear
11:35 AM 32.0 °F 23.0 °F 10.4 °F 41% 30.36 in 10.0 mi NNW 11.5 mph 17.3 mph N/A   Clear
11:55 AM 32.0 °F 23.0 °F 8.6 °F 38% 30.36 in 10.0 mi NW 11.5 mph - N/A   Clear
12:15 PM 32.0 °F 23.0 °F 6.8 °F 35% 30.35 in 10.0 mi NW 11.5 mph 17.3 mph N/A   Clear
12:35 PM 32.0 °F 23.6 °F 5.0 °F 32% 30.34 in 10.0 mi WNW 10.4 mph - N/A   Clear
12:55 PM 32.0 °F 22.5 °F 10.4 °F 41% 30.33 in 10.0 mi WNW 12.7 mph 20.7 mph N/A   Clear
1:15 PM 32.0 °F 22.1 °F 14.0 °F 48% 30.32 in 10.0 mi NW 13.8 mph 21.9 mph N/A   Clear
1:35 PM 33.8 °F 23.9 °F 15.8 °F 48% 30.31 in 10.0 mi West 15.0 mph 18.4 mph N/A   Scattered Clouds
1:55 PM 33.8 °F 23.2 °F 15.8 °F 48% 30.31 in 10.0 mi WNW 17.3 mph 21.9 mph N/A   Scattered Clouds
2:15 PM 33.8 °F 23.9 °F 15.8 °F 48% 30.31 in 10.0 mi WNW 15.0 mph 20.7 mph N/A   Scattered Clouds
2:35 PM 33.8 °F 25.3 °F 14.0 °F 44% 30.30 in 10.0 mi NW 11.5 mph 19.6 mph N/A   Mostly Cloudy
2:55 PM 33.8 °F 25.3 °F 17.6 °F 52% 30.30 in 10.0 mi NW 11.5 mph 17.3 mph N/A   Scattered Clouds
3:15 PM 33.8 °F 24.8 °F 14.0 °F 44% 30.30 in 10.0 mi NW 12.7 mph 18.4 mph N/A   Clear
3:35 PM 33.8 °F 25.3 °F 15.8 °F 48% 30.30 in 10.0 mi NW 11.5 mph - N/A   Scattered Clouds
3:55 PM 33.8 °F 23.2 °F 15.8 °F 48% 30.31 in 10.0 mi NW 17.3 mph 25.3 mph N/A   Scattered Clouds
4:15 PM 33.8 °F 24.8 °F 14.0 °F 44% 30.30 in 10.0 mi NNW 12.7 mph 18.4 mph N/A   Clear
4:35 PM 33.8 °F 23.9 °F 15.8 °F 48% 30.30 in 10.0 mi NNW 15.0 mph 20.7 mph N/A   Clear
4:55 PM 33.8 °F 25.3 °F 15.8 °F 48% 30.30 in 10.0 mi NNW 11.5 mph 17.3 mph N/A   Clear
5:15 PM 33.8 °F 26.4 °F 15.8 °F 48% 30.30 in 10.0 mi NW 9.2 mph - N/A   Clear
5:35 PM 32.0 °F 24.2 °F 15.8 °F 51% 30.30 in 10.0 mi NNW 9.2 mph - N/A   Clear
5:55 PM 32.0 °F 24.8 °F 17.6 °F 55% 30.29 in 10.0 mi North 8.1 mph - N/A   Scattered Clouds
6:15 PM 32.0 °F 27.5 °F 17.6 °F 55% 30.30 in 10.0 mi NNW 4.6 mph - N/A   Scattered Clouds
6:35 PM 32.0 °F 25.6 °F 17.6 °F 55% 30.30 in 10.0 mi North 6.9 mph - N/A   Clear
6:55 PM 32.0 °F 27.5 °F 15.8 °F 51% 30.30 in 10.0 mi NNE 4.6 mph - N/A   Clear
7:15 PM 30.2 °F 26.7 °F 17.6 °F 60% 30.30 in 10.0 mi NNE 3.5 mph - N/A   Clear
7:35 PM 30.2 °F - 17.6 °F 60% 30.30 in 10.0 mi Calm Calm - N/A   Clear
7:55 PM 28.4 °F - 17.6 °F 64% 30.30 in 10.0 mi Calm Calm - N/A   Clear
8:15 PM 28.4 °F - 17.6 °F 64% 30.30 in 10.0 mi Calm Calm - N/A   Scattered Clouds
8:35 PM 28.4 °F - 17.6 °F 64% 30.30 in 10.0 mi Calm Calm - N/A   Mostly Cloudy
8:55 PM 28.4 °F - 19.4 °F 69% 30.31 in 10.0 mi Calm Calm - N/A   Unknown
9:15 PM 28.4 °F - 23.0 °F 80% 30.31 in 10.0 mi Calm Calm - N/A   Overcast
9:35 PM 28.4 °F - 19.4 °F 69% 30.31 in 10.0 mi Calm Calm - N/A   Overcast
9:55 PM 28.4 °F - 21.2 °F 74% 30.31 in 10.0 mi Calm Calm - N/A   Overcast
10:15 PM 28.4 °F - 17.6 °F 64% 30.31 in 10.0 mi Calm Calm - N/A   Mostly Cloudy
10:35 PM 28.4 °F - 21.2 °F 74% 30.31 in 10.0 mi Calm Calm - N/A   Mostly Cloudy
10:55 PM 28.4 °F - 19.4 °F 69% 30.31 in 10.0 mi Calm Calm - N/A   Unknown
11:15 PM 28.4 °F - 21.2 °F 74% 30.30 in 10.0 mi Calm Calm - N/A   Overcast
11:35 PM 28.4 °F - 19.4 °F 69% 30.30 in 10.0 mi Calm Calm - N/A   Unknown
11:55 PM 28.4 °F - 21.2 °F 74% 30.30 in 10.0 mi Calm Calm - N/A   Overcast